Location: Asheville, NC
(35.6000°N, 82.5500°W)
Time: 04:36:08
(UTC-05:00)

STRAND 1 - Pass Details

Date: 08 January 2018
Orbit: 768 x 782 km, 98.5° (Epoch: 17 January)

Event Time Altitude Azimuth Distance (km) Brightness Sun altitude
Exits shadow 19:37:41 21° 156° (SSE) 1,699 ? -24.6°
Drops below altitude 10° 19:39:28 10° 167° (SSE) 2,315 ? -24.9°
Sets 19:41:55 0° 175° (S) 3,240 ? -25.4°
